Regional Weather Roundup
Issued by NWS

Home | Current Version | Previous Version | Graphics & Text | Print | Product List | Glossary On
Versions: 1 2 3 4 5 6 7 8 9 10 11 12 13 14 15 16 17 18 19 20 21 22 23 24 25 26 27
000
ASUS45 KCYS 241210
RWRWY

WYOMING REGIONAL WEATHER ROUNDUP
NATIONAL WEATHER SERVICE CHEYENNE WY
600 AM MDT THU APR 24 2014

NOTE:  "FAIR" INDICATES FEW OR NO CLOUDS BELOW 12,000 FEET
WITH NO SIGNIFICANT WEATHER AND/OR OBSTRUCTIONS TO VISIBILITY.

WYZ001-241300-
YELLOWSTONE NATIONAL PARK

CITY           SKY/WX    TMP DP  RH WIND       PRES   REMARKS
LK YELLOWSTONE   N/A     27  19  72 VRB6      29.98F WCI  20
6HR MIN TEMP:  24; 6HR MAX TEMP:  27;

W YELLOWSTONE  NOT AVBL

$$
WYZ002>013-054>058-071-098>099-241300-
NORTHERN WYOMING

CITY           SKY/WX    TMP DP  RH WIND       PRES   REMARKS
JACKSON        CLOUDY    32  25  74 SW6       30.00S WCI  26
CODY           PTCLDY    43  18  36 W17G31    29.87F
GREYBULL       CLEAR     32  21  64 CALM      29.89S
6HR MIN TEMP:  32; 6HR MAX TEMP:  41;

WORLAND        CLEAR     32  20  61 SE12      29.88F WCI  23
6HR MIN TEMP:  28; 6HR MAX TEMP:  37;

SHERIDAN         N/A     27  16  63 W5          N/A  WCI  21
6HR MIN TEMP:  32; 6HR MAX TEMP:  46;

BUFFALO        CLEAR     35  15  44 CALM      29.84F
6HR MIN TEMP:  32; 6HR MAX TEMP:  45;

GILLETTE       CLEAR     37  17  44 SW18      29.84F WCI  27
6HR MIN TEMP:  30; 6HR MAX TEMP:  37;

HULETT         FAIR      30  21  69 S7        29.85  WCI  23
NEWCASTLE      FAIR      28  21  74 CALM      29.89

$$
WYZ014>020-022>026-101>103-241300-
CENTRAL WYOMING

CITY           SKY/WX    TMP DP  RH WIND       PRES   REMARKS
BIG PINEY      CLEAR     19  12  74 CALM      30.04S
6HR MIN TEMP:  17; 6HR MAX TEMP:  26;

PINEDALE       CLOUDY    23  21  93 CALM      30.05R
DUBOIS         FAIR      30  16  55 NW9G16    29.93S WCI  22
LANDER         PTCLDY    30  15  53 N12       29.94S WCI  20
6HR MIN TEMP:  27; 6HR MAX TEMP:  38;

RIVERTON       PTCLDY    34  15  46 VRB5      29.95R WCI  30
6HR MIN TEMP:  28; 6HR MAX TEMP:  35;

CASPER         CLEAR     30  16  56 SW5       29.96R WCI  25
6HR MIN TEMP:  26; 6HR MAX TEMP:  34;

DOUGLAS        CLEAR     27  18  69 CALM      29.94F
6HR MIN TEMP:  26; 6HR MAX TEMP:  36;


$$
WYZ021-027>030-104>119-241300-
SOUTHERN WYOMING

CITY           SKY/WX    TMP DP  RH WIND       PRES   REMARKS
EVANSTON       CLEAR     25  15  66 SW13      30.06S WCI  14
6HR MIN TEMP:  25; 6HR MAX TEMP:  27;

FORT BRIDGER   FAIR      33  19  54 SW12      30.08S WCI  25
ROCK SPRINGS   CLEAR     28  13  53 SW13      30.06R WCI  17
6HR MIN TEMP:  27; 6HR MAX TEMP:  33;

DIXON          FAIR      23  17  78 S3        30.12R
RAWLINS        CLEAR     27  14  58 SW16      30.03S WCI  15
6HR MIN TEMP:  27; 6HR MAX TEMP:  33;

SARATOGA       FAIR      27  16  63 SW10      30.05F WCI  17
LARAMIE        CLEAR     22  12  65 SW7       30.00S WCI  13
6HR MIN TEMP:  21; 6HR MAX TEMP:  30;

CHEYENNE       CLEAR     29  14  53 W7        29.98S WCI  22
6HR MIN TEMP:  29; 6HR MAX TEMP:  41;

TORRINGTON     CLEAR     31  23  72 W7        29.94S WCI  24
6HR MIN TEMP:  31; 6HR MAX TEMP:  42;

PINE BLUFFS    FAIR      30  18  59 W9        29.97S WCI  22

$$



USA.gov is the U.S. government's official web portal to all federal, state and local government web resources and services.